Total_Precipitation_Accumulation
0.00 0.04 0.29 1.51 1.78 0.83 0.91 1.75 1.44 1.04 0.42 0.18 0.22 0.28 0.44 0.11 0.01 0.00 0.00 0.00 0.00 0.00 0.00 0.00 0.00 0.00 0.00 0.00 0.00 0.00 0.00 0.00 0.00 0.00 0.00 0.00 0.00 0.00 0.00 0.00 0.00 0.00 0.00
0.00 0.03 0.21 0.66 1.92 1.22 0.64 1.20 1.70 1.30 0.80 0.13 0.07 0.09 0.07 0.03 0.00 0.00 0.00 0.00 0.00 0.00 0.00 0.00 0.00 0.00 0.00 0.00 0.00 0.00 0.00 0.00 0.00 0.00 0.00 0.00 0.00 0.00 0.00 0.00 0.00 0.00 0.00
0.01 0.02 0.08 0.35 1.01 1.93 0.89 0.84 1.41 1.47 1.10 0.44 0.10 0.11 0.13 0.06 0.01 0.00 0.00 0.00 0.00 0.00 0.00 0.00 0.00 0.00 0.00 0.00 0.00 0.01 0.01 0.01 0.00 0.00 0.00 0.01 0.02 0.02 0.00 0.00 0.00 0.00 0.00
0.03 0.04 0.05 0.22 0.55 1.74 1.33 0.83 1.30 1.76 1.30 0.94 0.25 0.09 0.05 0.03 0.00 0.00 0.00 0.01 0.01 0.01 0.00 0.01 0.01 0.01 0.02 0.03 0.02 0.03 0.06 0.08 0.08 0.02 0.00 0.01 0.02 0.04 0.02 0.00 0.00 0.00 0.02
0.01 0.01 0.05 0.18 0.41 0.77 1.60 1.31 1.63 1.69 2.18 1.38 0.63 0.27 0.19 0.13 0.06 0.03 0.04 0.04 0.07 0.03 0.05 0.04 0.03 0.08 0.08 0.08 0.07 0.09 0.04 0.04 0.01 0.00 0.01 0.00 0.00 0.01 0.02 0.03 0.04 0.05 0.03
0.03 0.00 0.03 0.18 0.33 0.56 1.17 1.67 2.04 1.66 2.53 2.28 1.65 0.66 0.39 0.39 0.21 0.10 0.06 0.07 0.08 0.08 0.10 0.11 0.11 0.15 0.13 0.11 0.12 0.14 0.07 0.01 0.00 0.01 0.03 0.03 0.02 0.01 0.01 0.01 0.00 0.00 0.00
0.07 0.01 0.01 0.09 0.22 0.42 0.79 1.09 2.41 2.00 2.25 2.44 2.59 1.80 1.32 0.87 0.49 0.34 0.34 0.12 0.04 0.05 0.12 0.16 0.21 0.34 0.36 0.19 0.15 0.13 0.08 0.03 0.02 0.02 0.04 0.05 0.04 0.02 0.00 0.01 0.01 0.00 0.00
0.04 0.02 0.01 0.07 0.18 0.32 0.62 0.69 1.10 1.74 1.83 1.98 2.76 2.57 2.44 1.88 1.14 0.83 0.55 0.51 0.22 0.12 0.21 0.19 0.31 0.38 0.31 0.25 0.11 0.04 0.04 0.04 0.03 0.02 0.02 0.02 0.01 0.00 0.01 0.01 0.01 0.01 0.00
0.02 0.02 0.01 0.09 0.18 0.31 0.36 0.68 0.79 0.83 1.41 1.24 2.00 2.47 2.05 1.66 1.53 1.32 0.87 0.71 0.65 0.48 0.32 0.38 0.29 0.28 0.26 0.19 0.13 0.08 0.05 0.02 0.01 0.01 0.00 0.00 0.00 0.00 0.00 0.00 0.01 0.02 0.00
0.02 0.03 0.04 0.19 0.21 0.23 0.32 0.36 0.43 0.56 0.85 1.01 1.14 1.46 1.43 1.37 1.14 1.18 1.08 0.75 0.61 0.59 0.47 0.32 0.29 0.23 0.27 0.35 0.18 0.09 0.06 0.02 0.00 0.00 0.00 0.00 0.00 0.00 0.00 0.00 0.00 0.00 0.00
0.07 0.10 0.28 0.39 0.24 0.12 0.20 0.19 0.21 0.34 0.77 0.69 0.80 0.85 0.98 1.04 0.79 0.81 0.87 0.70 0.54 0.39 0.40 0.36 0.29 0.19 0.14 0.16 0.25 0.11 0.04 0.02 0.01 0.00 0.00 0.00 0.00 0.00 0.00 0.00 0.00 0.00 0.00
0.32 0.54 0.74 0.50 0.21 0.10 0.14 0.14 0.19 0.33 0.99 0.75 0.60 0.52 0.44 0.45 0.43 0.41 0.54 0.90 0.46 0.32 0.27 0.25 0.29 0.22 0.15 0.11 0.11 0.10 0.04 0.02 0.01 0.01 0.01 0.00 0.00 0.00 0.00 0.00 0.00 0.00 0.00
0.73 0.65 0.54 0.35 0.20 0.18 0.17 0.15 0.16 0.23 0.82 0.87 0.56 0.32 0.24 0.25 0.28 0.24 0.23 0.44 0.58 0.38 0.29 0.23 0.21 0.15 0.12 0.08 0.06 0.07 0.07 0.05 0.04 0.04 0.02 0.00 0.00 0.00 0.00 0.00 0.00 0.00 0.00
0.75 0.54 0.45 0.33 0.18 0.13 0.18 0.09 0.08 0.14 0.29 0.47 0.32 0.18 0.14 0.17 0.16 0.14 0.18 0.17 0.19 0.26 0.31 0.32 0.25 0.17 0.12 0.10 0.07 0.05 0.06 0.06 0.03 0.02 0.02 0.00 0.00 0.00 0.00 0.00 0.00 0.00 0.00
0.57 0.52 0.32 0.23 0.16 0.14 0.08 0.06 0.05 0.06 0.09 0.15 0.16 0.11 0.06 0.08 0.12 0.12 0.13 0.12 0.11 0.10 0.15 0.16 0.17 0.23 0.22 0.13 0.09 0.07 0.05 0.05 0.06 0.01 0.00 0.00 0.00 0.00 0.00 0.00 0.00 0.00 0.00
0.31 0.11 0.10 0.09 0.07 0.08 0.08 0.05 0.07 0.03 0.04 0.08 0.08 0.04 0.06 0.07 0.08 0.07 0.08 0.08 0.08 0.07 0.07 0.04 0.03 0.03 0.03 0.04 0.04 0.04 0.02 0.02 0.01 0.00 0.00 0.00 0.00 0.00 0.00 0.00 0.00 0.00 0.00
0.10 0.08 0.07 0.07 0.07 0.05 0.05 0.04 0.03 0.01 0.01 0.02 0.02 0.03 0.04 0.04 0.04 0.05 0.05 0.08 0.11 0.16 0.13 0.14 0.11 0.11 0.06 0.03 0.04 0.03 0.02 0.00 0.00 0.00 0.00 0.00 0.00 0.00 0.00 0.00 0.00 0.00 0.00
0.01 0.01 0.02 0.03 0.05 0.03 0.02 0.02 0.01 0.00 0.01 0.02 0.05 0.07 0.05 0.03 0.02 0.02 0.03 0.03 0.02 0.03 0.06 0.10 0.19 0.20 0.08 0.01 0.00 0.00 0.00 0.00 0.00 0.00 0.00 0.00 0.00 0.00 0.00 0.00 0.00 0.00 0.00
0.00 0.00 0.00 0.00 0.00 0.00 0.00 0.00 0.00 0.00 0.00 0.00 0.00 0.02 0.04 0.04 0.02 0.01 0.01 0.02 0.02 0.01 0.01 0.02 0.04 0.06 0.01 0.02 0.01 0.00 0.00 0.00 0.00 0.00 0.00 0.00 0.00 0.00 0.00 0.00 0.00 0.00 0.00
0.00 0.00 0.00 0.00 0.00 0.00 0.00 0.00 0.00 0.00 0.00 0.00 0.00 0.00 0.01 0.01 0.03 0.02 0.02 0.01 0.01 0.01 0.01 0.01 0.01 0.04 0.04 0.02 0.04 0.01 0.00 0.00 0.00 0.00 0.00 0.00 0.00 0.00 0.00 0.00 0.00 0.00 0.00
0.00 0.00 0.00 0.00 0.00 0.00 0.00 0.00 0.00 0.00 0.00 0.00 0.00 0.00 0.00 0.00 0.01 0.01 0.01 0.00 0.00 0.00 0.00 0.00 0.00 0.00 0.00 0.00 0.00 0.00 0.00 0.00 0.00 0.00 0.00 0.00 0.00 0.00 0.00 0.00 0.00 0.00 0.00
0.00 0.00 0.00 0.00 0.00 0.00 0.00 0.00 0.00 0.00 0.00 0.00 0.00 0.00 0.00 0.00 0.00 0.00 0.00 0.00 0.00 0.00 0.01 0.01 0.01 0.01 0.01 0.00 0.00 0.00 0.00 0.00 0.00 0.00 0.00 0.00 0.00 0.00 0.00 0.00 0.00 0.00 0.00
0.00 0.00 0.00 0.00 0.00 0.00 0.00 0.00 0.00 0.00 0.00 0.00 0.00 0.00 0.00 0.00 0.00 0.00 0.00 0.00 0.00 0.00 0.00 0.00 0.00 0.00 0.00 0.00 0.00 0.00 0.00 0.00 0.00 0.00 0.00 0.00 0.00 0.00 0.00 0.00 0.00 0.00 0.00
0.00 0.00 0.00 0.00 0.00 0.00 0.00 0.00 0.00 0.00 0.00 0.00 0.00 0.00 0.00 0.00 0.00 0.00 0.00 0.00 0.00 0.00 0.00 0.00 0.00 0.00 0.00 0.00 0.00 0.00 0.00 0.00 0.00 0.00 0.00 0.00 0.00 0.00 0.00 0.00 0.00 0.00 0.00
0.00 0.00 0.00 0.00 0.00 0.00 0.00 0.00 0.00 0.02 0.05 0.07 0.10 0.14 0.12 0.10 0.06 0.03 0.03 0.02 0.01 0.02 0.01 0.00 0.01 0.01 0.01 0.01 0.01 0.00 0.00 0.00 0.00 0.00 0.00 0.00 0.00 0.00 0.00 0.00 0.00 0.00 0.00
0.00 0.00 0.00 0.00 0.00 0.00 0.00 0.00 0.00 0.00 0.00 0.01 0.01 0.02 0.07 0.21 0.29 0.33 0.38 0.39 0.37 0.36 0.29 0.25 0.21 0.18 0.22 0.19 0.19 0.17 0.13 0.11 0.09 0.06 0.02 0.01 0.01 0.01 0.01 0.00 0.00 0.00 0.00